TimeMDT,TemperatureF,Dew PointF,Humidity,Sea Level PressureIn,VisibilityMPH,Wind Direction,Wind SpeedMPH,Gust SpeedMPH,PrecipitationIn,Events,Conditions,WindDirDegrees,DateUTC
12:35 AM,78.1,36.5,22,30.22,10.0,WNW,4.6,-,N/A,,Clear,290,2013-06-28 06:35:00
12:55 AM,77.2,37.8,24,30.22,10.0,Calm,Calm,-,N/A,,Clear,0,2013-06-28 06:55:00
1:15 AM,71.8,40.5,32,30.23,10.0,NNE,3.5,-,N/A,,Clear,20,2013-06-28 07:15:00
1:35 AM,72.1,37.9,29,30.23,10.0,ENE,4.6,-,N/A,,Clear,60,2013-06-28 07:35:00
1:55 AM,70.7,34.5,26,30.23,10.0,NE,6.9,-,N/A,,Clear,50,2013-06-28 07:55:00
2:15 AM,70.3,37.0,30,30.24,10.0,NNE,3.5,-,N/A,,Clear,30,2013-06-28 08:15:00
2:35 AM,71.2,36.9,28,30.24,10.0,NE,4.6,-,N/A,,Clear,40,2013-06-28 08:35:00
2:55 AM,70.2,37.2,30,30.25,10.0,NE,3.5,-,N/A,,Clear,50,2013-06-28 08:55:00
3:15 AM,70.7,37.6,30,30.24,10.0,East,3.5,-,N/A,,Clear,90,2013-06-28 09:15:00
3:35 AM,69.1,35.6,29,30.24,10.0,ENE,3.5,-,N/A,,Clear,60,2013-06-28 09:35:00
3:55 AM,67.3,41.2,39,30.24,10.0,Calm,Calm,-,N/A,,Clear,0,2013-06-28 09:55:00
4:15 AM,65.8,34.2,31,30.24,10.0,ESE,4.6,-,N/A,,Clear,120,2013-06-28 10:15:00
4:35 AM,65.5,34.3,31,30.25,10.0,Calm,Calm,-,N/A,,Clear,0,2013-06-28 10:35:00
4:55 AM,65.1,35.4,33,30.25,10.0,Calm,Calm,-,N/A,,Clear,0,2013-06-28 10:55:00
5:15 AM,63.0,39.9,43,30.25,10.0,Calm,Calm,-,N/A,,Clear,0,2013-06-28 11:15:00
5:35 AM,63.0,40.3,43,30.26,10.0,Calm,Calm,-,N/A,,Clear,0,2013-06-28 11:35:00
5:55 AM,64.6,37.0,36,30.27,10.0,Calm,Calm,-,N/A,,Clear,0,2013-06-28 11:55:00
6:55 AM,64.0,38.3,39,30.28,10.0,ESE,3.5,-,N/A,,Clear,120,2013-06-28 12:55:00
7:15 AM,64.6,39.0,39,30.29,10.0,Calm,Calm,-,N/A,,Clear,0,2013-06-28 13:15:00
7:35 AM,68.2,38.7,34,30.30,10.0,Calm,Calm,-,N/A,,Clear,0,2013-06-28 13:35:00
7:55 AM,69.1,37.8,32,30.30,10.0,Calm,Calm,-,N/A,,Clear,0,2013-06-28 13:55:00
8:15 AM,71.4,37.6,29,30.30,10.0,Calm,Calm,-,N/A,,Clear,0,2013-06-28 14:15:00
8:35 AM,73.9,37.6,27,30.30,10.0,NE,3.5,-,N/A,,Clear,50,2013-06-28 14:35:00
8:55 AM,76.3,36.3,24,30.30,10.0,NE,3.5,-,N/A,,Clear,40,2013-06-28 14:55:00
9:15 AM,78.8,38.1,23,30.30,10.0,SE,4.6,-,N/A,,Clear,140,2013-06-28 15:15:00
9:35 AM,78.8,41.0,26,30.30,10.0,Calm,Calm,-,N/A,,Clear,0,2013-06-28 15:35:00
9:55 AM,80.6,40.5,24,30.30,10.0,Calm,Calm,-,N/A,,Clear,0,2013-06-28 15:55:00
10:15 AM,82.2,40.3,23,30.30,10.0,Calm,Calm,-,N/A,,Clear,0,2013-06-28 16:15:00
10:35 AM,83.8,39.6,21,30.30,10.0,Calm,Calm,-,N/A,,Clear,0,2013-06-28 16:35:00
10:55 AM,86.5,39.2,19,30.29,10.0,Calm,Calm,-,N/A,,Clear,0,2013-06-28 16:55:00
11:15 AM,88.7,38.1,17,30.28,10.0,Calm,Calm,-,N/A,,Clear,0,2013-06-28 17:15:00
11:35 AM,89.2,39.0,17,30.28,10.0,East,3.5,-,N/A,,Clear,100,2013-06-28 17:35:00
11:55 AM,91.4,34.9,14,30.27,10.0,South,3.5,-,N/A,,Clear,170,2013-06-28 17:55:00
12:15 PM,92.7,35.8,14,30.26,10.0,SSW,5.8,-,N/A,,Clear,200,2013-06-28 18:15:00
12:35 PM,93.0,35.6,13,30.25,10.0,SW,3.5,-,N/A,,Clear,220,2013-06-28 18:35:00
12:55 PM,93.9,34.3,12,30.24,10.0,South,4.6,-,N/A,,Clear,190,2013-06-28 18:55:00
1:15 PM,95.2,35.6,12,30.23,10.0,Calm,Calm,-,N/A,,Clear,0,2013-06-28 19:15:00
1:35 PM,98.2,36.9,12,30.22,10.0,South,4.6,-,N/A,,Clear,190,2013-06-28 19:35:00
1:55 PM,96.4,35.1,12,30.21,10.0,SSW,4.6,-,N/A,,Clear,210,2013-06-28 19:55:00
2:15 PM,98.8,35.4,11,30.19,10.0,SW,3.5,-,N/A,,Clear,220,2013-06-28 20:15:00
2:35 PM,99.7,35.8,11,30.18,10.0,South,4.6,-,N/A,,Clear,170,2013-06-28 20:35:00
2:55 PM,100.8,28.0,8,30.17,10.0,South,3.5,-,N/A,,Clear,190,2013-06-28 20:55:00
3:15 PM,101.5,29.7,8,30.16,10.0,South,5.8,-,N/A,,Clear,190,2013-06-28 21:15:00
3:35 PM,102.9,30.9,8,30.15,10.0,South,3.5,-,N/A,,Clear,180,2013-06-28 21:35:00
3:55 PM,102.6,31.6,8,30.13,10.0,SSE,6.9,-,N/A,,Clear,150,2013-06-28 21:55:00
4:15 PM,102.2,30.4,8,30.12,10.0,South,5.8,-,N/A,,Clear,170,2013-06-28 22:15:00
4:35 PM,103.6,31.1,8,30.11,10.0,SSE,9.2,16.1,N/A,,Clear,160,2013-06-28 22:35:00
4:55 PM,104.0,32.0,8,30.11,10.0,SSE,8.1,-,N/A,,Clear,160,2013-06-28 22:55:00
5:15 PM,102.2,30.9,8,30.10,10.0,East,5.8,-,N/A,,Clear,100,2013-06-28 23:15:00
5:35 PM,100.2,31.5,9,30.10,10.0,SE,4.6,-,N/A,,Clear,130,2013-06-28 23:35:00
5:55 PM,100.0,28.9,8,30.10,10.0,SW,5.8,19.6,N/A,,Clear,230,2013-06-28 23:55:00
6:15 PM,100.4,26.8,7,30.08,7.0,WSW,13.8,18.4,N/A,,Clear,240,2013-06-29 00:15:00
6:35 PM,101.1,26.8,7,30.08,10.0,WNW,3.5,-,N/A,,Clear,300,2013-06-29 00:35:00
6:55 PM,100.9,27.7,8,30.08,10.0,NW,13.8,19.6,N/A,,Clear,320,2013-06-29 00:55:00
7:15 PM,100.8,30.2,8,30.09,10.0,NW,19.6,26.5,N/A,,Clear,320,2013-06-29 01:15:00
7:35 PM,97.9,30.0,9,30.10,10.0,NW,12.7,20.7,N/A,,Clear,320,2013-06-29 01:35:00
7:55 PM,97.5,30.7,10,30.11,10.0,East,16.1,21.9,N/A,,Clear,80,2013-06-29 01:55:00
8:15 PM,94.8,32.4,11,30.14,7.0,NNE,12.7,26.5,N/A,,Clear,30,2013-06-29 02:15:00
8:35 PM,93.6,31.8,11,30.15,10.0,East,10.4,26.5,N/A,,Clear,90,2013-06-29 02:35:00
8:55 PM,92.7,32.0,12,30.15,10.0,East,11.5,-,N/A,,Clear,90,2013-06-29 02:55:00
9:15 PM,90.7,32.7,13,30.14,10.0,Calm,Calm,-,N/A,,Clear,0,2013-06-29 03:15:00
9:35 PM,88.2,32.0,13,30.14,10.0,NE,4.6,-,N/A,,Clear,40,2013-06-29 03:35:00
9:55 PM,86.0,34.9,16,30.14,10.0,NNW,10.4,-,N/A,,Clear,340,2013-06-29 03:55:00
10:15 PM,86.0,34.0,16,30.15,10.0,North,6.9,-,N/A,,Clear,10,2013-06-29 04:15:00
10:35 PM,83.7,35.2,18,30.16,10.0,South,4.6,-,N/A,,Clear,170,2013-06-29 04:35:00
10:55 PM,87.1,32.2,14,30.17,10.0,NE,3.5,-,N/A,,Clear,50,2013-06-29 04:55:00
11:15 PM,81.7,39.4,22,30.17,10.0,NNW,5.8,-,N/A,,Clear,340,2013-06-29 05:15:00
11:35 PM,81.7,36.1,20,30.17,10.0,North,6.9,-,N/A,,Clear,10,2013-06-29 05:35:00
11:55 PM,81.0,36.3,20,30.17,10.0,NNW,6.9,-,N/A,,Clear,340,2013-06-29 05:55:00